TimeAEST,TemperatureF,Dew PointF,Humidity,Sea Level PressureIn,VisibilityMPH,Wind Direction,Wind SpeedMPH,Gust SpeedMPH,PrecipitationIn,Events,Conditions,WindDirDegrees,DateUTC
12:00 AM,72,60,58,30.17,,ESE,35.7,,,,,120,2012-10-02 14:00:00
12:00 AM,71.6,60.8,69,30.15,-9999.0,ESE,35.7,-,N/A,,Unknown,120,2012-10-02 14:00:00
12:30 AM,69.8,59.0,68,30.15,-9999.0,ESE,36.8,-,N/A,,Unknown,110,2012-10-02 14:30:00
1:00 AM,71.6,59.0,64,30.15,-9999.0,ESE,33.4,-,N/A,,Unknown,110,2012-10-02 15:00:00
1:30 AM,71.6,62.6,73,30.15,-9999.0,ESE,35.7,-,N/A,,Unknown,120,2012-10-02 15:30:00
1:53 AM,68.0,59.0,73,30.12,-9999.0,ESE,34.5,48.3,N/A,,Unknown,110,2012-10-02 15:53:00
2:00 AM,69.8,60.8,73,30.12,-9999.0,ESE,36.8,48.3,N/A,,Unknown,110,2012-10-02 16:00:00
2:30 AM,71.6,60.8,69,30.12,-9999.0,ESE,33.4,-,N/A,,Unknown,120,2012-10-02 16:30:00
3:00 AM,71,60,59,30.12,,ESE,34.5,,,,,120,2012-10-02 17:00:00
3:00 AM,71.6,59.0,64,30.12,-9999.0,ESE,34.5,-,N/A,,Unknown,120,2012-10-02 17:00:00
3:30 AM,71.6,60.8,69,30.12,-9999.0,ESE,34.5,-,N/A,,Unknown,110,2012-10-02 17:30:00
4:00 AM,71.6,60.8,69,30.12,-9999.0,ESE,32.2,-,N/A,,Unknown,120,2012-10-02 18:00:00
4:30 AM,71.6,59.0,64,30.12,-9999.0,ESE,27.6,-,N/A,,Unknown,120,2012-10-02 18:30:00
5:00 AM,71.6,60.8,69,30.12,-9999.0,ESE,31.1,-,N/A,,Unknown,120,2012-10-02 19:00:00
5:30 AM,71.6,59.0,64,30.12,-9999.0,ESE,31.1,-,N/A,,Unknown,120,2012-10-02 19:30:00
6:00 AM,71,58,54,30.15,,ESE,33.4,,,,,120,2012-10-02 20:00:00
6:00 AM,71.6,57.2,60,30.15,-9999.0,ESE,33.4,-,N/A,,Unknown,120,2012-10-02 20:00:00
6:30 AM,71.6,59.0,64,30.15,-9999.0,ESE,31.1,-,N/A,,Unknown,120,2012-10-02 20:30:00
7:00 AM,71.6,59.0,64,30.18,-9999.0,ESE,33.4,-,N/A,,Unknown,120,2012-10-02 21:00:00
7:30 AM,71.6,59.0,64,30.18,-9999.0,ESE,28.8,-,N/A,,Unknown,110,2012-10-02 21:30:00
8:00 AM,73.4,57.2,57,30.18,-9999.0,ESE,29.9,-,N/A,,Unknown,110,2012-10-02 22:00:00
8:30 AM,71.6,59.0,64,30.18,-9999.0,ESE,32.2,-,N/A,,Unknown,120,2012-10-02 22:30:00
9:00 AM,72,58,52,30.21,,ESE,29.9,,,,,120,2012-10-02 23:00:00
9:00 AM,71.6,59.0,64,30.21,-9999.0,ESE,29.9,-,N/A,,Unknown,120,2012-10-02 23:00:00
9:30 AM,73.4,57.2,57,30.21,-9999.0,ESE,31.1,-,N/A,,Unknown,120,2012-10-02 23:30:00
10:00 AM,75.2,59.0,57,30.21,-9999.0,ESE,27.6,-,N/A,,Unknown,120,2012-10-03 00:00:00
10:30 AM,75.2,59.0,57,30.21,-9999.0,ESE,27.6,-,N/A,,Unknown,120,2012-10-03 00:30:00
11:00 AM,73.4,57.2,57,30.21,-9999.0,ESE,32.2,-,N/A,,Unknown,120,2012-10-03 01:00:00
11:30 AM,75.2,57.2,53,30.18,-9999.0,ESE,29.9,-,N/A,,Unknown,120,2012-10-03 01:30:00
12:00 PM,75,60,51,30.19,,ESE,28.8,,,,,120,2012-10-03 02:00:00
12:00 PM,75.2,60.8,61,30.18,-9999.0,ESE,28.8,-,N/A,,Unknown,120,2012-10-03 02:00:00
12:30 PM,75.2,59.0,57,30.18,-9999.0,SE,29.9,-,N/A,,Unknown,130,2012-10-03 02:30:00
1:00 PM,75.2,59.0,57,30.15,-9999.0,SE,28.8,-,N/A,,Unknown,130,2012-10-03 03:00:00
1:30 PM,75.2,57.2,53,30.15,-9999.0,SE,28.8,-,N/A,,Unknown,130,2012-10-03 03:30:00
2:00 PM,73.4,59.0,61,30.12,-9999.0,SE,29.9,-,N/A,,Unknown,130,2012-10-03 04:00:00
2:30 PM,73.4,57.2,57,30.12,-9999.0,SE,33.4,-,N/A,,Unknown,140,2012-10-03 04:30:00
3:00 PM,73,59,52,30.12,,SE,29.9,,,,,130,2012-10-03 05:00:00
3:00 PM,73.4,59.0,61,30.12,-9999.0,SE,29.9,-,N/A,,Unknown,130,2012-10-03 05:00:00
3:30 PM,73.4,57.2,57,30.12,-9999.0,SE,33.4,-,N/A,,Unknown,130,2012-10-03 05:30:00
4:00 PM,71.6,59.0,64,30.09,-9999.0,SE,32.2,-,N/A,,Unknown,130,2012-10-03 06:00:00
4:30 PM,71.6,57.2,60,30.12,-9999.0,SE,33.4,-,N/A,,Unknown,130,2012-10-03 06:30:00
5:00 PM,71.6,57.2,60,30.12,-9999.0,SE,31.1,-,N/A,,Unknown,130,2012-10-03 07:00:00
5:30 PM,71.6,57.2,60,30.12,-9999.0,SE,28.8,-,N/A,,Unknown,130,2012-10-03 07:30:00
6:00 PM,71,60,60,30.14,,SE,29.9,,,,,130,2012-10-03 08:00:00
6:00 PM,71.6,60.8,69,30.12,-9999.0,SE,29.9,-,N/A,,Unknown,130,2012-10-03 08:00:00
6:30 PM,71.6,59.0,64,30.15,-9999.0,ESE,29.9,-,N/A,,Unknown,120,2012-10-03 08:30:00
7:00 PM,71.6,57.2,60,30.15,-9999.0,SE,29.9,-,N/A,,Unknown,130,2012-10-03 09:00:00
7:30 PM,69.8,59.0,68,30.15,-9999.0,ESE,28.8,-,N/A,,Unknown,120,2012-10-03 09:30:00
8:00 PM,69.8,59.0,68,30.15,-9999.0,ESE,27.6,-,N/A,,Unknown,120,2012-10-03 10:00:00
8:30 PM,68.0,59.0,73,30.15,-9999.0,East,28.8,-,N/A,,Unknown,100,2012-10-03 10:30:00
8:42 PM,69.8,59.0,68,30.15,-9999.0,ESE,24.2,35.7,N/A,,Unknown,120,2012-10-03 10:42:00
9:00 PM,71,59,57,30.17,,ESE,28.8,,,,,120,2012-10-03 11:00:00
9:00 PM,71.6,59.0,64,30.15,-9999.0,ESE,28.8,-,N/A,,Unknown,120,2012-10-03 11:00:00
9:30 PM,69.8,60.8,73,30.15,-9999.0,ESE,26.5,-,N/A,,Unknown,120,2012-10-03 11:30:00
10:00 PM,69.8,60.8,73,30.15,-9999.0,SE,26.5,-,N/A,,Unknown,130,2012-10-03 12:00:00
10:30 PM,69.8,57.2,64,30.15,-9999.0,SE,27.6,-,N/A,,Unknown,130,2012-10-03 12:30:00
11:00 PM,71.6,59.0,64,30.15,-9999.0,SE,26.5,-,N/A,,Unknown,130,2012-10-03 13:00:00
11:30 PM,71.6,59.0,64,30.15,-9999.0,SE,27.6,-,N/A,,Unknown,130,2012-10-03 13:30:00